Dewpoint
46 50 55 57 58 58 58 57 55 51 51 50 48 47 47 44 42 39 36 35 33 33 32 27 25 24 23 23 24 26 25 26 28 29 29 30 29 28 25 24 20 21 20
44 47 51 55 56 57 58 57 53 51 51 50 49 48 46 43 41 39 36 36 35 35 32 27 25 24 24 24 23 26 26 26 27 25 25 22 25 29 25 26 19 18 19
42 44 48 52 55 56 56 55 52 52 51 49 48 47 43 42 39 38 38 37 37 37 34 29 26 27 26 26 26 27 26 26 25 25 18 21 17 16 23 24 21 18 18
42 43 44 48 53 55 57 55 51 51 51 49 46 44 42 40 39 37 38 38 38 37 34 30 27 28 27 28 26 25 27 25 25 25 20 21 19 15 14 18 21 19 17
41 43 44 47 52 54 55 54 53 52 50 48 46 46 43 41 39 37 38 37 38 36 31 29 29 28 28 28 28 27 26 26 22 24 23 21 22 21 18 13 16 18 19
43 44 45 46 51 53 55 54 52 51 49 49 46 46 44 40 39 38 38 37 38 35 30 29 29 28 28 28 29 30 28 25 24 23 20 18 17 16 16 15 17 18 19
43 46 46 47 48 52 54 54 52 52 48 49 46 45 42 41 40 39 38 38 36 33 29 28 28 28 30 29 29 29 28 27 26 24 21 22 21 22 21 21 20 20 21
45 46 46 48 47 49 53 53 52 51 48 47 46 44 42 40 38 38 39 38 35 32 28 27 27 26 27 28 28 28 28 28 27 27 25 24 24 24 24 24 24 22 20
42 45 46 47 47 47 50 52 51 50 47 46 46 43 41 40 38 37 38 37 33 29 27 27 26 27 27 27 27 25 26 25 26 28 28 25 25 27 27 27 27 25 21
39 44 44 46 46 47 50 51 51 49 47 47 45 43 41 39 39 38 37 35 31 25 26 26 26 26 26 26 26 26 25 25 26 26 25 26 26 26 28 29 27 27 26
37 41 43 44 46 46 48 50 50 48 47 46 45 43 41 39 38 37 36 33 29 26 25 25 25 25 24 23 23 24 25 25 25 26 26 26 27 26 26 28 28 27 27
31 41 42 43 44 46 47 47 48 48 48 46 44 43 41 40 37 36 35 31 26 25 24 24 23 22 21 22 23 22 23 23 24 26 27 26 24 28 27 27 27 28 27
32 30 42 42 43 45 46 47 48 47 46 44 43 42 40 38 37 35 32 29 26 26 24 23 22 21 23 23 22 22 23 25 26 27 27 27 26 27 27 27 26 27 25
32 30 37 42 42 44 46 46 46 46 45 43 42 40 39 38 35 31 29 27 26 25 24 22 23 24 23 23 23 24 26 27 27 28 28 27 26 26 27 26 27 25 26
35 37 40 42 42 44 46 46 46 45 45 44 41 40 39 35 31 28 27 26 25 24 24 23 24 23 23 23 27 28 28 28 27 28 26 26 26 28 27 26 26 26 25
39 39 41 42 44 45 46 47 47 45 44 43 40 38 33 30 28 26 24 25 25 25 23 23 24 25 23 31 32 30 28 27 26 24 24 24 25 25 28 29 30 30 28
42 41 42 44 45 46 47 46 45 45 43 42 36 32 30 27 25 23 23 23 23 23 23 24 24 24 28 32 32 30 27 25 25 24 24 23 23 27 26 27 29 29 32
42 43 45 45 46 45 44 43 41 41 39 35 31 29 27 24 22 21 21 21 22 22 22 23 23 25 28 30 30 30 26 25 24 24 24 25 26 26 27 27 29 27 25
42 43 42 41 41 41 40 39 38 36 35 31 28 25 23 21 21 21 21 21 23 22 22 22 23 25 26 29 29 27 25 24 23 24 26 26 25 26 29 29 26 24 24
41 40 39 38 37 38 38 37 36 35 33 30 28 26 24 24 23 23 21 22 21 21 21 21 22 24 24 28 28 26 24 23 24 25 25 26 26 28 29 26 24 23 22
38 37 35 36 35 35 35 34 34 33 32 32 31 30 29 27 25 22 23 22 21 20 21 22 22 23 23 26 27 26 24 24 25 23 21 21 27 27 27 27 23 23 25
32 31 31 32 33 34 33 32 30 32 31 31 30 28 25 23 23 23 22 21 21 21 22 22 22 22 23 25 27 28 27 27 23 22 20 22 26 24 25 24 25 26 24
28 30 30 29 30 31 30 29 30 31 30 29 27 24 24 23 22 23 25 25 25 24 23 20 20 20 21 23 28 29 26 24 24 22 24 25 23 23 21 23 24 22 18
27 29 30 29 29 30 30 29 29 28 28 27 27 28 27 28 28 27 26 25 24 23 21 20 20 20 21 23 25 23 23 24 25 25 24 22 21 20 20 18 18 17 18
25 26 27 26 26 28 28 30 30 28 28 28 28 28 27 27 26 26 25 23 23 22 21 21 21 22 22 25 24 23 21 23 23 23 21 18 16 15 15 15 16 18 18
28 27 26 26 27 28 28 29 30 29 27 26 26 26 26 26 25 25 26 28 27 27 27 26 24 23 27 25 23 23 23 22 23 17 17 16 15 15 14 15 16 17 19
Lifted_Index
3 3 2 1 1 -0 0 2 3 4 7 8 9 9 9 9 10 12 14 16 16 16 16 16 16 16 15 15 15 15 15 15 15 15 15 16 17 18 20 21 22 22 23
3 3 2 2 1 0 1 2 3 5 7 8 9 9 9 9 10 12 14 16 16 16 16 16 16 15 15 15 15 15 15 15 15 15 14 14 15 17 19 20 21 22 22
3 3 3 2 1 1 1 2 4 6 7 8 8 8 9 9 10 12 14 15 16 16 16 16 16 15 15 15 15 15 15 14 15 15 15 14 14 15 17 19 20 21 22
2 2 2 2 1 1 1 2 4 6 7 8 8 8 9 9 10 12 14 15 16 16 16 16 16 15 15 15 15 15 15 14 14 15 15 15 15 14 15 16 18 20 21
1 1 1 1 1 1 1 2 4 6 7 7 8 8 8 9 10 12 14 15 16 16 16 16 16 15 15 15 15 15 15 15 15 15 15 16 16 15 14 14 16 18 19
0 0 0 1 1 1 1 1 3 5 6 7 7 7 8 8 10 12 14 15 15 16 16 16 15 15 15 15 15 15 15 15 15 16 16 16 16 16 16 15 15 16 17
-0 -0 -0 0 1 1 1 1 2 3 5 6 6 7 7 7 8 11 13 14 14 15 15 15 15 15 15 15 15 15 16 16 16 17 17 18 18 19 18 18 17 16 16
-0 -0 -0 -0 0 1 1 1 2 2 4 5 5 6 6 6 7 9 11 13 14 14 15 15 15 15 15 15 15 15 16 16 17 18 19 20 20 21 21 20 19 18 17
-0 -0 -0 -0 0 1 1 2 2 2 3 4 4 5 5 5 5 7 10 12 14 14 15 15 15 15 15 15 15 16 16 17 18 19 20 20 21 21 22 21 21 19 18
1 0 -0 0 0 0 1 2 2 3 3 3 4 4 4 4 4 5 8 11 13 14 14 14 14 15 15 15 16 16 16 17 18 19 20 20 21 21 22 22 22 21 20
1 0 0 0 0 0 0 1 2 3 3 3 3 3 3 3 3 4 6 9 12 13 13 13 14 14 14 15 16 16 17 17 18 19 20 20 21 21 21 21 21 21 21
1 1 0 0 1 0 0 1 2 2 3 3 3 3 3 3 3 4 6 8 11 13 13 13 13 13 14 15 16 16 17 18 18 19 20 20 20 21 21 21 21 21 21
1 1 0 0 1 1 1 1 1 2 2 3 3 3 3 3 3 4 5 8 10 12 12 12 12 13 14 15 16 17 18 18 19 19 20 20 20 20 20 20 21 21 21
1 1 1 1 1 1 1 1 1 2 2 3 3 4 3 3 3 4 5 7 9 11 11 11 11 12 14 15 17 18 18 19 19 20 20 20 20 20 20 20 20 21 21
1 2 1 1 1 1 1 2 2 2 2 3 3 4 4 3 3 4 5 7 9 11 11 11 12 13 14 16 17 18 18 19 19 19 19 20 20 20 20 21 21 21 21
2 2 2 2 1 1 2 2 2 2 2 3 4 4 4 4 4 4 6 7 9 11 11 11 12 13 15 16 17 18 19 19 19 19 19 20 20 21 21 21 22 22 21
2 2 2 2 2 2 2 2 3 3 3 3 4 4 4 4 4 5 6 8 9 10 11 12 13 15 16 17 18 18 19 19 18 19 19 19 20 21 21 22 22 21 21
3 3 3 3 3 3 3 3 3 3 3 4 4 4 4 4 5 6 7 8 9 10 11 13 14 16 17 18 18 18 18 18 18 19 19 19 20 21 21 21 21 21 21
3 3 3 3 4 4 4 3 4 4 4 4 5 5 5 5 5 7 8 10 11 12 13 15 16 17 17 18 18 18 18 18 18 19 20 20 20 21 21 21 21 21 21
3 3 4 4 4 4 4 3 4 5 5 5 5 5 5 5 7 8 10 11 13 14 15 16 17 17 18 18 19 19 18 18 18 19 20 20 21 21 21 21 21 21 21
4 4 4 4 5 5 4 4 5 5 6 6 6 6 6 7 9 10 12 13 14 15 16 16 17 17 18 19 19 19 19 18 18 19 20 20 21 21 21 21 21 21 21
4 4 4 5 6 7 6 6 6 7 7 7 7 7 8 10 11 12 13 14 15 15 15 16 16 17 18 19 19 19 19 19 19 19 20 21 21 21 21 21 21 22 22
4 4 5 5 7 8 9 8 8 8 8 7 8 9 11 13 14 14 14 14 15 15 15 16 16 17 18 19 19 19 20 20 20 20 21 21 21 21 21 22 22 22 22
4 5 6 6 7 10 11 10 10 9 8 8 9 11 13 14 15 15 15 15 16 16 16 16 16 17 17 18 19 19 20 20 20 21 21 21 21 21 22 22 22 21 21
5 6 7 7 8 10 12 12 11 10 9 10 12 14 14 14 15 15 16 16 17 17 17 17 17 17 18 18 19 20 20 20 20 20 20 20 21 21 21 21 20 19 19
6 7 8 8 9 11 12 12 12 11 10 11 14 15 15 14 15 15 16 17 18 18 18 18 18 18 18 19 20 20 20 20 20 20 20 20 20 20 20 19 18 18 18